Curtis, Michigan, United States (49820)
Lat: 46.21N, Lon: 85.75W
Wx Zone: MIZ015
Local Info
Past Weather Observations for Today

NOTE: This archive is for the closest National Weather Service station to Curtis. Information may differ from the station used for current weather conditions.

Click here for Long-term Archive

Time Weather Temperature Dewpoint Humidity Pressure Winds Precip Visibility
15:14
Overcast
Light Snow
18°F / -8°C 14°F / -10°C 86% 29.8 in
(1009 mb)
W 16.1 mph
(W 26 kph)
- 1 1/4SM
14:53
Overcast
Light Snow
18°F / -8°C 14°F / -10°C 86% 29.8 in
(1009 mb)
W 21.9 mph
(W 35 kph)
- 3/4SM
14:34
Overcast
Light Snow
18°F / -8°C 16°F / -9°C 93% 29.77 in
(1008 mb)
W 15 mph
(W 24 kph)
- 1/4SM
14:13
Overcast
Light Snow
18°F / -8°C 16°F / -9°C 93% 29.77 in
(1008 mb)
W 20.7 mph
(W 33 kph)
- 1/2SM
13:54
Overcast
Light Snow
19°F / -7°C 16°F / -9°C 86% 29.77 in
(1008 mb)
W 19.6 mph
(W 32 kph)
- 1SM
13:34
Overcast
Light Snow
19°F / -7°C 16°F / -9°C 86% 29.74 in
(1007 mb)
W 15 mph
(W 24 kph)
- 3/4SM
13:13
Overcast
Light Snow
19°F / -7°C 16°F / -9°C 86% 29.74 in
(1007 mb)
W 19.6 mph
(W 32 kph)
- 3/4SM
12:54
Overcast
Snow
19°F / -7°C 16°F / -9°C 86% 29.74 in
(1007 mb)
W 18.4 mph
(W 30 kph)
- 1/4SM
12:34
Overcast
Light Snow
19°F / -7°C 14°F / -10°C 79% 29.71 in
(1006 mb)
W 19.6 mph
(W 32 kph)
- 1 3/4SM
12:14
Overcast
Light Snow
19°F / -7°C 14°F / -10°C 79% 29.71 in
(1006 mb)
W 21.9 mph
(W 35 kph)
- 4SM
11:54
Overcast
Light Snow
19°F / -7°C 14°F / -10°C 79% 29.71 in
(1006 mb)
SSW 17.3 mph
(SSW 28 kph)
- 4SM
11:34
Overcast
18°F / -8°C 12°F / -11°C 79% 29.71 in
(1006 mb)
SSW 15 mph
(SSW 24 kph)
- 7SM
11:14
Mostly Cloudy
18°F / -8°C 12°F / -11°C 79% 29.71 in
(1006 mb)
SSW 17.3 mph
(SSW 28 kph)
- 10SM
10:54
Partly Cloudy
18°F / -8°C 12°F / -11°C 79% 29.71 in
(1006 mb)
SSW 16.1 mph
(SSW 26 kph)
- 10SM
10:33
Mostly Cloudy
16°F / -9°C 12°F / -11°C 86% 29.71 in
(1006 mb)
SSW 16.1 mph
(SSW 26 kph)
- 10SM
10:14
Overcast
14°F / -10°C 10°F / -12°C 85% 29.68 in
(1005 mb)
SSW 16.1 mph
(SSW 26 kph)
- 7SM
09:54
Overcast
14°F / -10°C 10°F / -12°C 85% 29.68 in
(1005 mb)
SSW 18.4 mph
(SSW 30 kph)
- 7SM
09:33
Mostly Cloudy
14°F / -10°C 10°F / -12°C 85% 29.68 in
(1005 mb)
SSW 13.8 mph
(SSW 22 kph)
- 7SM
09:14
Mostly Cloudy
14°F / -10°C 10°F / -12°C 85% 29.68 in
(1005 mb)
SSW 18.4 mph
(SSW 30 kph)
- 7SM
08:54
Partly Cloudy
12°F / -11°C 10°F / -12°C 92% 29.68 in
(1005 mb)
SSW 17.3 mph
(SSW 28 kph)
- 10SM
08:34
Mostly Cloudy
12°F / -11°C 10°F / -12°C 92% 29.65 in
(1004 mb)
SSW 16.1 mph
(SSW 26 kph)
- 10SM
08:14
Mostly Cloudy
14°F / -10°C 10°F / -12°C 85% 29.65 in
(1004 mb)
SSW 15 mph
(SSW 24 kph)
- 10SM
07:54
Clear
12°F / -11°C 10°F / -12°C 92% 29.65 in
(1004 mb)
SSW 15 mph
(SSW 24 kph)
- 10SM
07:34
Clear
12°F / -11°C 10°F / -12°C 92% 29.65 in
(1004 mb)
SSW 15 mph
(SSW 24 kph)
- 7SM
07:14
Partly Cloudy
14°F / -10°C 10°F / -12°C 85% 29.65 in
(1004 mb)
SSW 15 mph
(SSW 24 kph)
- 10SM
06:53
Overcast
Light Snow
14°F / -10°C 12°F / -11°C 92% 29.65 in
(1004 mb)
SSW 15 mph
(SSW 24 kph)
- 2 1/2SM
06:34
Overcast
14°F / -10°C 12°F / -11°C 92% 29.62 in
(1003 mb)
SSW 16.1 mph
(SSW 26 kph)
- 7SM
06:14
Overcast
14°F / -10°C 12°F / -11°C 92% 29.62 in
(1003 mb)
SSW 13.8 mph
(SSW 22 kph)
- 10SM
05:53
Overcast
Light Snow
16°F / -9°C 12°F / -11°C 86% 29.62 in
(1003 mb)
SSW 12.7 mph
(SSW 20 kph)
- 2SM
05:34
Mostly Cloudy
Light Snow
14°F / -10°C 12°F / -11°C 92% 29.62 in
(1003 mb)
SSW 17.3 mph
(SSW 28 kph)
- 5SM
05:14
Overcast
Light Snow
16°F / -9°C 12°F / -11°C 86% 29.62 in
(1003 mb)
SSW 13.8 mph
(SSW 22 kph)
- 1 3/4SM
04:53
Overcast
Light Snow
16°F / -9°C 12°F / -11°C 86% 29.62 in
(1003 mb)
SSW 13.8 mph
(SSW 22 kph)
- 2SM
04:34
Partly Cloudy
14°F / -10°C 12°F / -11°C 92% 29.62 in
(1003 mb)
SSW 13.8 mph
(SSW 22 kph)
- 10SM
04:14
Partly Cloudy
Fog And Mist
16°F / -9°C 12°F / -11°C 86% 29.59 in
(1002 mb)
SSW 16.1 mph
(SSW 26 kph)
- 5SM
03:54
Partly Cloudy
16°F / -9°C 12°F / -11°C 86% 29.59 in
(1002 mb)
SSW 13.8 mph
(SSW 22 kph)
- 10SM
03:34
Mostly Cloudy
Light Snow
16°F / -9°C 14°F / -10°C 93% 29.59 in
(1002 mb)
SSW 16.1 mph
(SSW 26 kph)
- 5SM
03:14
Overcast
16°F / -9°C 14°F / -10°C 93% 29.59 in
(1002 mb)
SSW 16.1 mph
(SSW 26 kph)
- 7SM
02:54
Overcast
16°F / -9°C 14°F / -10°C 93% 29.59 in
(1002 mb)
SSW 16.1 mph
(SSW 26 kph)
- 10SM
02:34
Overcast
18°F / -8°C 14°F / -10°C 86% 29.59 in
(1002 mb)
SSW 16.1 mph
(SSW 26 kph)
- 10SM
02:13
Overcast
18°F / -8°C 16°F / -9°C 93% 29.56 in
(1001 mb)
SSW 16.1 mph
(SSW 26 kph)
- 10SM
01:53
Overcast
Light Snow
18°F / -8°C 16°F / -9°C 93% 29.56 in
(1001 mb)
SSW 15 mph
(SSW 24 kph)
- 4SM
01:34
Overcast
Light Snow
18°F / -8°C 16°F / -9°C 93% 29.56 in
(1001 mb)
SSW 16.1 mph
(SSW 26 kph)
- 3SM
01:14
Overcast
Light Snow
18°F / -8°C 16°F / -9°C 93% 29.56 in
(1001 mb)
SSW 15 mph
(SSW 24 kph)
- 1 1/2SM
00:54
Overcast
Light Snow
18°F / -8°C 16°F / -9°C 93% 29.56 in
(1001 mb)
SSW 16.1 mph
(SSW 26 kph)
- 1 1/4SM
00:33
Overcast
Light Snow
18°F / -8°C 16°F / -9°C 93% 29.53 in
(1000 mb)
SSW 15 mph
(SSW 24 kph)
- 2SM
00:14
Overcast
Light Snow
18°F / -8°C 16°F / -9°C 93% 29.53 in
(1000 mb)
SSW 15 mph
(SSW 24 kph)
- 3/4SM
Time Weather Temperature Dewpoint Humidity Pressure Winds Precip Visibility


Weather for websites

WeatherForYou.com, LLC is not responsible for any damages or problems caused by this service. Current weather conditions are obtained from the closest station including government and personal stations which may have varying degrees of accuracy. Weather forecasts are derived from the NOAA NDFD. Like all things, this site belongs to Jesus Christ... He just trusts me to maintain it. If you have any questions or comments email webmaster@weatherforyou.com

Copyright © 2014, WeatherForYou.com LLC. All rights reserved.